Pagina principale
METAR-TAF:

METAR-TAF

Aeroporti :

Tortolì, Italia

Capo Bellavista

latitudine: 39-56N, longitudine: 009-43E, altezza: 138 m

Osservazione

Il bollettino è stato emesso 40 minuti fa, alle 19:55 UTC
Vento 8 kt da nord/nord-ovest
Temperature 25°C
Umidità 28%
Pressione 1005 hPa
Visibilità 10 km o più
nessuna nube inferiore a 1500 m e nessun cumulonembo

METAR: LIEB 251955Z 33008KT CAVOK 25/05 Q1005 RMK SKC QUK / QUL / VIS MAR 30 KM MON INVIS VIS MIN 9999

Ora: 22:35 (20:35 UTC)


TAF: mancante

Osservazioni e previsioni meteorologiche di più di 4000 aeroporti (messaggi METAR e TAF).

Le stazioni disponibili sono rappresentate dai dischi gialli e rossi sulla carta.

Puntare il mouse per vedere il nome della stazione.

Clicca sopra per visualizzare le osservazioni e previsioni meteorologiche.

Per cambiare la mappa : fare clic sui pulsanti verdi con una croce nera per ingrandire, il pulsante verde con un trattino per diminuire, o sulla freccia verde per le mappe adiacenti.


METAR-TAF: